Voltar ao catálogo

COSMOS 970 DEB

AtivoLEO
NORAD 10580·DEBRIS·🇷🇺 Russia

Lançado Dec 21, 1977 de Baikonur Cosmodrome

Loading…

Próximas Passagens (próximas 24 horas)

TLE

AtualizadoSource: Space-Track

Época: Sep 13, 2026, 12:25 UTC

1 10580U 77121X   26256.51764328  .00000151  00000-0  37739-3 0  9998
2 10580  65.6817 323.3847 0087711 232.9220 242.6511 13.44762160386173

Acompanhe COSMOS 970 DEB em tempo real com AllMySat

Download on the App Store